Location: Roah Hook
(42.4840°N, 73.7893°W)
Time: 03:32:28
(UTC+00:00)

Envisat - Pass Details

Date: 12 October 2024
Orbit: 762 x 763 km, 98.3° (Epoch: 04 November)

Event Time Altitude Azimuth Distance (km) Brightness Sun altitude
Rises 08:45:48 0° 5° (N) 3,235 6.5 -26.3°
Reaches altitude 10° 08:48:14 10° 358° (N) 2,305 5.6 -25.9°
Enters shadow 08:50:54 28° 337° (NNW) 1,424 4.3 -25.4°
